Weather History for Yuma MCAS, AZ

Change the Weather History Date:

Sunday, May 4, 2014

  Actual Average Record
Temperature  
Mean Temperature 87 °F 78 °F  
Max Temperature 103 °F 92 °F 108 °F (1947)
Min Temperature 70 °F 65 °F 45 °F (1899)
Degree Days  
Heating Degree Days 0 0  
Month to date heating degree days 0 0  
Since 1 July heating degree days 370 686  
Cooling Degree Days 22 13  
Month to date cooling degree days 77 51  
Year to date cooling degree days 689 457  
Growing Degree Days 36 (Base 50)    
Moisture  
Dew Point 24 °F    
Average Humidity 19    
Maximum Humidity 35    
Minimum Humidity 3    
Precipitation  
Precipitation 0.00 in 0.00 in 0.02 in (1890)
Month to date precipitation 0.00 0.01  
Year to date precipitation 0.07 1.25  
Sea Level Pressure  
Sea Level Pressure 29.83 in    
Wind  
Wind Speed 8 mph (South)    
Max Wind Speed 17 mph    
Max Gust Speed 21 mph    
Visibility 10 miles    
Events      
T = Trace of Precipitation, MM = Missing Value Source: NWS Daily Summary

Daily Weather History Graph

Daily Weather History Graph

Search for Another Location

Airport:

Trip Planner

Search our weather history database for the weather conditions in past years. The results will help you decide how hot, cold, wet, or windy it might be!

Date:

Astronomy

May. 04, 2014 Rise Set
Actual Time 5:48 AM MST 7:22 PM MST
Civil Twilight 5:22 AM MST 7:48 PM MST
Nautical Twilight 4:50 AM MST 8:20 PM MST
Astronomical Twilight 4:17 AM MST 8:53 PM MST
Moon 10:17 AM MST (5/4) No Moon Set
Length of Visible Light 14h 26m
Length of Day
13h 33m
Waxing Crescent, 28% of the Moon is Illuminated
May 4
Waxing Crescent
May 6
First Quarter
May 14
Full
May 21
Last Quarter
May 28
New

Hourly Weather History & Observations

Time (MST) Temp. Dew Point Humidity Pressure Visibility Wind Dir Wind Speed Gust Speed Precip Events Conditions
12:57 AM 78.1 °F 19.9 °F 11% 29.81 in 10.0 mi Calm Calm - N/A   Clear
1:57 AM 78.1 °F 19.9 °F 11% 29.81 in 10.0 mi West 3.5 mph - N/A   Clear
2:57 AM 73.9 °F 23.0 °F 15% 29.81 in 10.0 mi Calm Calm - N/A   Clear
3:57 AM 71.1 °F 24.1 °F 17% 29.81 in 10.0 mi South 6.9 mph - N/A   Clear
4:57 AM 71.1 °F 26.1 °F 19% 29.82 in 10.0 mi SSE 10.4 mph - N/A   Clear
5:57 AM 70.0 °F 36.0 °F 29% 29.84 in 10.0 mi SSE 10.4 mph - N/A   Clear
6:57 AM 73.0 °F 45.0 °F 37% 29.85 in 10.0 mi SSE 11.5 mph - N/A   Clear
7:57 AM 79.0 °F 46.9 °F 32% 29.87 in 10.0 mi South 6.9 mph - N/A   Clear
8:57 AM 84.9 °F 45.0 °F 25% 29.88 in 10.0 mi South 9.2 mph - N/A   Clear
9:57 AM 89.1 °F 28.9 °F 12% 29.89 in 10.0 mi SSW 6.9 mph - N/A   Clear
10:57 AM 93.0 °F 21.9 °F 8% 29.89 in 10.0 mi SSW 8.1 mph - N/A   Clear
11:57 AM 93.9 °F -0.0 °F 4% 29.88 in 10.0 mi Calm Calm - N/A   Clear
12:57 PM 97.0 °F 5.0 °F 4% 29.86 in 10.0 mi South 6.9 mph - N/A   Clear
1:57 PM 99.0 °F 15.1 °F 5% 29.83 in 10.0 mi South 8.1 mph - N/A   Clear
2:57 PM 100.9 °F 12.0 °F 4% 29.80 in 10.0 mi South 11.5 mph - N/A   Clear
3:57 PM 102.0 °F 15.1 °F 4% 29.77 in 10.0 mi SSW 10.4 mph - N/A   Clear
4:57 PM 100.0 °F 21.9 °F 6% 29.77 in 10.0 mi South 15.0 mph - N/A   Clear
5:57 PM 98.1 °F 19.9 °F 6% 29.77 in 10.0 mi South 13.8 mph - N/A   Clear
6:57 PM 93.9 °F 19.0 °F 7% 29.78 in 10.0 mi South 13.8 mph - N/A   Clear
7:57 PM 86.0 °F 21.9 °F 10% 29.79 in 10.0 mi South 9.2 mph - N/A   Clear
8:57 PM 82.9 °F 27.0 °F 13% 29.81 in 10.0 mi South 12.7 mph - N/A   Clear
9:57 PM 82.0 °F 27.0 °F 13% 29.83 in 10.0 mi SSE 12.7 mph - N/A   Clear
10:57 PM 81.0 °F 32.0 °F 17% 29.85 in 10.0 mi WSW 4.6 mph - N/A   Clear
11:57 PM 79.0 °F 34.0 °F 20% 29.86 in 10.0 mi SSW 3.5 mph - N/A   Clear